FLOCK 4V 13

导读

FLOCK 4V 13是美国Planet公司研制发射的商业遥感立方体卫星,隶属于Flock“鸽群”星座,于2020年9月3日发射入轨。该卫星属于3U微纳卫星,重量仅约5千克,运行于近地太阳同步轨道,配备光学成像系统,可提供分辨率约3-5米的对地遥感影像,助力全球陆地观测与地面动态监测。

Basic Information
目录编号:
46297
目录名称:
FLOCK 4V 13
国际标识:
2020-061AB
轨道中心:
EARTH
卫星名称:
FLOCK 4V 13
卫星全名:
--
卫星状态:
已陨落 最后检测时间 2024-11-27
发射日期:
2020-09-03 UTC
国别 :
美国 (US)
星等 :
--
Orbit Information
数据来源 国际轨道数据
星历时间: 2024-11-25T02:52:13+0800
轨道信息已过期596天
半长轴: 6534.06km
偏心率: 0.0013161
轨道倾角: 97.295°
近地点辐角 277.758°
升交点赤经 47.866°
平近点角 82.223°
近地点: 147.325km
远地点: 164.525km
周期: 87.606分钟
每日圈数: 16.437213
Detailed Information
使用方式:
暂无